Time,TemperatureF,DewpointF,PressureIn,WindDirection,WindDirectionDegrees,WindSpeedMPH,WindSpeedGustMPH,Humidity,HourlyPrecipIn,Conditions,Clouds,dailyrainin,SolarRadiationWatts/m^2,SoftwareType,DateUTC
2013-01-13 00:22:00,35.0,24.0,30.10,East,93,5.0,6.0,62,-99.99,,,-99.99,0.000000,,2013-01-13 08:22:00,
2013-01-13 00:32:00,35.0,24.0,30.10,East,93,5.0,6.0,62,-99.99,,,-99.99,0.000000,,2013-01-13 08:32:00,
2013-01-13 00:40:00,35.0,22.0,30.11,East,84,5.0,7.0,58,-99.99,,,-99.99,0.000000,,2013-01-13 08:40:00,
2013-01-13 01:22:00,35.0,22.0,30.11,East,84,5.0,7.0,58,-99.99,,,-99.99,0.000000,,2013-01-13 09:22:00,
2013-01-13 01:32:00,35.0,22.0,30.11,East,84,5.0,7.0,58,-99.99,,,-99.99,0.000000,,2013-01-13 09:32:00,
2013-01-13 01:40:00,35.0,19.0,30.11,East,95,5.0,10.0,52,-99.99,,,-99.99,0.000000,,2013-01-13 09:40:00,
2013-01-13 02:22:00,35.0,19.0,30.11,East,95,5.0,10.0,52,-99.99,,,-99.99,0.000000,,2013-01-13 10:22:00,
2013-01-13 02:32:00,35.0,19.0,30.11,East,95,5.0,10.0,52,-99.99,,,-99.99,0.000000,,2013-01-13 10:32:00,
2013-01-13 02:40:00,34.0,15.0,30.13,East,86,5.0,8.0,44,-99.99,,,-99.99,0.000000,,2013-01-13 10:40:00,
2013-01-13 03:22:00,34.0,15.0,30.13,East,86,5.0,8.0,44,-99.99,,,-99.99,0.000000,,2013-01-13 11:22:00,
2013-01-13 03:32:00,34.0,15.0,30.13,East,86,5.0,8.0,44,-99.99,,,-99.99,0.000000,,2013-01-13 11:32:00,
2013-01-13 03:40:00,35.0,13.0,30.11,SSE,148,4.0,5.0,39,-99.99,,,-99.99,0.000000,,2013-01-13 11:40:00,
2013-01-13 04:22:00,35.0,13.0,30.11,SSE,148,4.0,5.0,39,-99.99,,,-99.99,0.000000,,2013-01-13 12:22:00,
2013-01-13 04:32:00,35.0,13.0,30.11,SSE,148,4.0,5.0,39,-99.99,,,-99.99,0.000000,,2013-01-13 12:32:00,
2013-01-13 04:40:00,34.0,11.0,30.11,NW,319,3.0,8.0,37,-99.99,,,-99.99,0.000000,,2013-01-13 12:40:00,
2013-01-13 05:22:00,34.0,11.0,30.11,NW,319,3.0,8.0,37,-99.99,,,-99.99,0.000000,,2013-01-13 13:22:00,
2013-01-13 05:32:00,34.0,11.0,30.11,NW,319,3.0,8.0,37,-99.99,,,-99.99,0.000000,,2013-01-13 13:32:00,
2013-01-13 05:40:00,34.0,6.0,30.11,WNW,290,6.0,9.0,30,-99.99,,,-99.99,0.000000,,2013-01-13 13:40:00,
2013-01-13 06:22:00,34.0,6.0,30.11,WNW,290,6.0,9.0,30,-99.99,,,-99.99,0.000000,,2013-01-13 14:22:00,
2013-01-13 06:33:00,34.0,6.0,30.11,WNW,290,6.0,9.0,30,-99.99,,,-99.99,0.000000,,2013-01-13 14:33:00,
2013-01-13 06:40:00,34.0,16.0,30.14,SE,139,2.0,4.0,47,-99.99,,,-99.99,0.000000,,2013-01-13 14:40:00,
2013-01-13 07:22:00,34.0,16.0,30.14,SE,139,2.0,4.0,47,-99.99,,,-99.99,0.000000,,2013-01-13 15:22:00,
2013-01-13 07:33:00,34.0,16.0,30.14,SE,139,2.0,4.0,47,-99.99,,,-99.99,0.000000,,2013-01-13 15:33:00,
2013-01-13 07:40:00,34.0,15.0,30.16,SE,128,3.0,6.0,45,-99.99,,,-99.99,12.000000,,2013-01-13 15:40:00,
2013-01-13 08:22:00,34.0,15.0,30.16,SE,128,3.0,6.0,45,-99.99,,,-99.99,12.000000,,2013-01-13 16:22:00,
2013-01-13 08:33:00,34.0,15.0,30.16,SE,128,3.0,6.0,45,-99.99,,,-99.99,12.000000,,2013-01-13 16:33:00,
2013-01-13 09:40:00,39.0,23.0,30.18,SW,236,4.0,7.0,53,-99.99,,,-99.99,430.000000,,2013-01-13 17:40:00,
2013-01-13 10:22:00,39.0,23.0,30.18,SW,236,4.0,7.0,53,-99.99,,,-99.99,430.000000,,2013-01-13 18:22:00,
2013-01-13 10:32:00,39.0,23.0,30.18,SW,236,4.0,7.0,53,-99.99,,,-99.99,430.000000,,2013-01-13 18:32:00,
2013-01-13 10:40:00,38.0,28.0,30.18,West,268,5.0,7.0,66,-99.99,,,-99.99,538.000000,,2013-01-13 18:40:00,
2013-01-13 11:22:00,38.0,28.0,30.18,West,268,5.0,7.0,66,-99.99,,,-99.99,538.000000,,2013-01-13 19:22:00,
2013-01-13 11:33:00,38.0,28.0,30.18,West,268,5.0,7.0,66,-99.99,,,-99.99,538.000000,,2013-01-13 19:33:00,
2013-01-13 11:40:00,39.0,28.0,30.15,WSW,256,3.0,6.0,64,-99.99,,,-99.99,586.000000,,2013-01-13 19:40:00,
2013-01-13 12:22:00,39.0,28.0,30.15,WSW,256,3.0,6.0,64,-99.99,,,-99.99,586.000000,,2013-01-13 20:22:00,
2013-01-13 12:32:00,39.0,28.0,30.15,WSW,256,3.0,6.0,64,-99.99,,,-99.99,586.000000,,2013-01-13 20:32:00,
2013-01-13 12:40:00,40.0,29.0,30.12,West,263,4.0,7.0,65,-99.99,,,-99.99,590.000000,,2013-01-13 20:40:00,
2013-01-13 13:23:00,40.0,29.0,30.12,West,263,4.0,7.0,65,-99.99,,,-99.99,590.000000,,2013-01-13 21:23:00,
2013-01-13 13:32:00,40.0,29.0,30.12,West,263,4.0,7.0,65,-99.99,,,-99.99,590.000000,,2013-01-13 21:32:00,
2013-01-13 13:40:00,39.0,27.0,30.12,West,260,5.0,8.0,62,-99.99,,,-99.99,455.000000,,2013-01-13 21:40:00,
2013-01-13 14:22:00,39.0,27.0,30.12,West,260,5.0,8.0,62,-99.99,,,-99.99,455.000000,,2013-01-13 22:22:00,
2013-01-13 14:33:00,39.0,27.0,30.12,West,260,5.0,8.0,62,-99.99,,,-99.99,455.000000,,2013-01-13 22:33:00,
2013-01-13 14:40:00,40.0,30.0,30.10,WSW,245,4.0,6.0,67,-99.99,,,-99.99,356.000000,,2013-01-13 22:40:00,
2013-01-13 15:22:00,40.0,30.0,30.10,WSW,245,4.0,6.0,67,-99.99,,,-99.99,356.000000,,2013-01-13 23:22:00,
2013-01-13 15:32:00,40.0,30.0,30.10,WSW,245,4.0,6.0,67,-99.99,,,-99.99,356.000000,,2013-01-13 23:32:00,
2013-01-13 15:40:00,43.0,31.0,30.10,SSW,202,1.0,4.0,64,-99.99,,,-99.99,238.000000,,2013-01-13 23:40:00,
2013-01-13 16:22:00,43.0,31.0,30.10,SSW,202,1.0,4.0,64,-99.99,,,-99.99,238.000000,,2013-01-14 00:22:00,
2013-01-13 16:32:00,43.0,31.0,30.10,SSW,202,1.0,4.0,64,-99.99,,,-99.99,238.000000,,2013-01-14 00:32:00,
2013-01-13 16:40:00,41.0,29.0,30.10,NW,306,1.0,5.0,61,-99.99,,,-99.99,97.000000,,2013-01-14 00:40:00,
2013-01-13 17:22:00,41.0,29.0,30.10,NW,306,1.0,5.0,61,-99.99,,,-99.99,97.000000,,2013-01-14 01:22:00,
2013-01-13 17:32:00,41.0,29.0,30.10,NW,306,1.0,5.0,61,-99.99,,,-99.99,97.000000,,2013-01-14 01:32:00,
2013-01-13 17:40:00,36.0,22.0,30.09,NW,309,6.0,8.0,56,-99.99,,,-99.99,0.000000,,2013-01-14 01:40:00,
2013-01-13 18:22:00,36.0,22.0,30.09,NW,309,6.0,8.0,56,-99.99,,,-99.99,0.000000,,2013-01-14 02:22:00,
2013-01-13 18:32:00,36.0,22.0,30.09,NW,309,6.0,8.0,56,-99.99,,,-99.99,0.000000,,2013-01-14 02:32:00,
2013-01-13 18:40:00,37.0,9.0,30.09,ENE,65,1.0,3.0,30,-99.99,,,-99.99,0.000000,,2013-01-14 02:40:00,
2013-01-13 19:22:00,37.0,9.0,30.09,ENE,65,1.0,3.0,30,-99.99,,,-99.99,0.000000,,2013-01-14 03:22:00,
2013-01-13 19:32:00,37.0,9.0,30.09,ENE,65,1.0,3.0,30,-99.99,,,-99.99,0.000000,,2013-01-14 03:32:00,
2013-01-13 19:40:00,37.0,6.0,30.09,NNW,342,3.0,5.0,27,-99.99,,,-99.99,0.000000,,2013-01-14 03:40:00,
2013-01-13 20:12:00,37.0,6.0,30.09,NNW,342,3.0,5.0,27,-99.99,,,-99.99,0.000000,,2013-01-14 04:12:00,
2013-01-13 20:22:00,37.0,6.0,30.09,NNW,342,3.0,5.0,27,-99.99,,,-99.99,0.000000,,2013-01-14 04:22:00,
2013-01-13 20:32:00,37.0,6.0,30.09,NNW,342,3.0,5.0,27,-99.99,,,-99.99,0.000000,,2013-01-14 04:32:00,
2013-01-13 20:40:00,38.0,0.0,30.09,North,357,5.0,18.0,20,-99.99,,,-99.99,0.000000,,2013-01-14 04:40:00,
2013-01-13 21:22:00,38.0,0.0,30.09,North,357,5.0,18.0,20,-99.99,,,-99.99,0.000000,,2013-01-14 05:22:00,
2013-01-13 21:32:00,38.0,0.0,30.09,North,357,5.0,18.0,20,-99.99,,,-99.99,0.000000,,2013-01-14 05:32:00,
2013-01-13 21:40:00,38.0,3.0,30.10,ENE,68,15.0,32.0,23,-99.99,,,-99.99,0.000000,,2013-01-14 05:40:00,
2013-01-13 22:22:00,38.0,3.0,30.10,ENE,68,15.0,32.0,23,-99.99,,,-99.99,0.000000,,2013-01-14 06:22:00,
2013-01-13 22:32:00,38.0,3.0,30.10,ENE,68,15.0,32.0,23,-99.99,,,-99.99,0.000000,,2013-01-14 06:32:00,
2013-01-13 22:40:00,37.0,3.0,30.12,East,92,7.0,16.0,23,-99.99,,,-99.99,0.000000,,2013-01-14 06:40:00,
2013-01-13 23:22:00,37.0,3.0,30.12,East,92,7.0,16.0,23,-99.99,,,-99.99,0.000000,,2013-01-14 07:22:00,
2013-01-13 23:32:00,37.0,3.0,30.12,East,92,7.0,16.0,23,-99.99,,,-99.99,0.000000,,2013-01-14 07:32:00,
2013-01-13 23:40:00,37.0,1.0,30.13,NNE,27,7.0,17.0,22,-99.99,,,-99.99,0.000000,,2013-01-14 07:40:00,